Weather History for St. Joseph, MO

Change the Weather History Date:

Thursday, June 19, 2014

  Actual Average Record
Temperature  
Mean Temperature 77 °F 75 °F  
Max Temperature 84 °F 85 °F 105 °F (1936)
Min Temperature 70 °F 64 °F 45 °F (1976)
Degree Days  
Heating Degree Days 0 0  
Month to date heating degree days 1 6  
Since 1 June heating degree days 1 6  
Since 1 July heating degree days 6270 5456  
Cooling Degree Days 12 10  
Month to date cooling degree days 148 151  
Year to date cooling degree days 309 264  
Since 1 June cooling degree days 148 151  
Growing Degree Days 28 (Base 50)    
Moisture  
Dew Point 71 °F    
Average Humidity 81    
Maximum Humidity 93    
Minimum Humidity 69    
Precipitation  
Precipitation 0.22 in 0.13 in 1.42 in (1932)
Month to date precipitation 5.99 2.95  
Year to date precipitation 13.76 15.90  
Sea Level Pressure  
Sea Level Pressure 29.91 in    
Wind  
Wind Speed 11 mph (South)    
Max Wind Speed 21 mph    
Max Gust Speed 26 mph    
Visibility 8 miles    
Events Rain , Thunderstorm    
T = Trace of Precipitation, MM = Missing Value Source: NWS Daily Summary

Daily Weather History Graph

Daily Weather History Graph

Search for Another Location

Airport:

Trip Planner

Search our weather history database for the weather conditions in past years. The results will help you decide how hot, cold, wet, or windy it might be!

Date:

Astronomy

Jun. 19, 2014 Rise Set
Actual Time 5:51 AM CDT 8:50 PM CDT
Civil Twilight 5:18 AM CDT 9:23 PM CDT
Nautical Twilight 4:37 AM CDT 10:04 PM CDT
Astronomical Twilight 3:48 AM CDT 10:53 PM CDT
Moon 12:55 AM CDT (6/19) 1:21 PM CDT (6/19)
Length of Visible Light 16h 04m
Length of Day
14h 59m
Waning Gibbous, 51% of the Moon is Illuminated
Jun 19
Waning Gibbous
Jun 19
Last Quarter
Jun 27
New
Jul 5
First Quarter
Jul 12
Full

Hourly Weather History & Observations

Time (CDT) Temp. Heat Index Dew Point Humidity Pressure Visibility Wind Dir Wind Speed Gust Speed Precip Events Conditions
12:53 AM 80.1 °F 83.2 °F 70.0 °F 71% 29.84 in 10.0 mi South 15.0 mph - N/A   Clear
2:53 AM 78.1 °F - 70.0 °F 76% 29.82 in 10.0 mi South 13.8 mph - N/A   Clear
3:53 AM 77.0 °F - 70.0 °F 79% 29.81 in 10.0 mi South 11.5 mph - N/A   Clear
5:53 AM 75.9 °F - 70.0 °F 82% 29.87 in 10.0 mi South 8.1 mph - N/A   Clear
6:53 AM 77.0 °F - 70.0 °F 79% 29.88 in 9.0 mi South 12.7 mph - N/A   Clear
7:53 AM 78.1 °F - 70.0 °F 76% 29.90 in 10.0 mi South 12.7 mph - N/A   Clear
8:53 AM 78.1 °F - 70.0 °F 76% 29.89 in 10.0 mi South 15.0 mph - N/A   Mostly Cloudy
9:17 AM 79.0 °F - 70.0 °F 74% 29.91 in 10.0 mi South 13.8 mph - N/A Thunderstorm Scattered Clouds
10:30 AM 75.0 °F - 71.1 °F 87% 29.92 in 8.0 mi South 10.4 mph - 0.00 in Rain , Thunderstorm Light Rain
10:37 AM 75.0 °F - 71.1 °F 87% 29.93 in 2.5 mi South 15.0 mph 24.2 mph 0.05 in Rain , Thunderstorm Heavy Thunderstorms and Rain
10:46 AM 73.9 °F - 71.1 °F 91% 29.93 in 1.5 mi South 18.4 mph 25.3 mph 0.12 in Rain , Thunderstorm Heavy Thunderstorms and Rain
10:53 AM 73.0 °F - 71.1 °F 93% 29.91 in 1.2 mi South 15.0 mph 25.3 mph 0.16 in Rain , Thunderstorm Heavy Thunderstorms and Rain
11:01 AM 72.0 °F - 70.0 °F 93% 29.94 in 2.0 mi South 15.0 mph - 0.03 in Rain , Thunderstorm Rain
11:07 AM 72.0 °F - 70.0 °F 93% 29.94 in 3.0 mi South 13.8 mph - 0.04 in Rain , Thunderstorm Light Thunderstorms and Rain
11:23 AM 73.0 °F - 70.0 °F 90% 29.94 in 8.0 mi South 12.7 mph - 0.05 in Rain Light Rain
11:53 AM 73.0 °F - 70.0 °F 90% 29.91 in 10.0 mi SSE 12.7 mph - 0.05 in   Clear
12:53 PM 75.9 °F - 72.0 °F 87% 29.91 in 10.0 mi SSW 12.7 mph - 0.00 in   Clear
1:53 PM 78.1 °F - 72.0 °F 81% 29.91 in 10.0 mi SSW 17.3 mph - N/A   Scattered Clouds
2:08 PM 78.1 °F - 73.0 °F 84% 29.93 in 10.0 mi South 13.8 mph - N/A   Mostly Cloudy
2:17 PM 78.1 °F - 73.0 °F 84% 29.93 in 10.0 mi South 16.1 mph - N/A   Scattered Clouds
2:53 PM 80.1 °F 84.2 °F 73.0 °F 79% 29.90 in 10.0 mi South 17.3 mph 20.7 mph N/A   Partly Cloudy
3:42 PM 80.1 °F 84.2 °F 73.0 °F 79% 29.90 in 10.0 mi SSW 13.8 mph - N/A   Mostly Cloudy
3:53 PM 79.0 °F - 73.0 °F 82% 29.88 in 10.0 mi South 12.7 mph 21.9 mph N/A   Mostly Cloudy
4:53 PM 82.0 °F 87.4 °F 73.0 °F 74% 29.91 in 10.0 mi SW 11.5 mph - N/A   Overcast
5:53 PM 84.0 °F 91.2 °F 73.9 °F 72% 29.90 in 10.0 mi WSW 10.4 mph - 0.01 in Thunderstorm Partly Cloudy
6:14 PM 84.0 °F 90.2 °F 73.0 °F 69% 29.93 in 10.0 mi SW 8.1 mph - N/A   Clear
6:53 PM 79.0 °F - 70.0 °F 74% 29.92 in 10.0 mi SE 9.2 mph - N/A   Clear
7:53 PM 75.9 °F - 69.1 °F 79% 29.92 in 10.0 mi ESE 8.1 mph - N/A   Scattered Clouds
8:53 PM 75.9 °F - 72.0 °F 87% 29.93 in 8.0 mi Calm Calm - 0.00 in Rain Light Rain
9:53 PM 75.9 °F - 72.0 °F 87% 29.95 in 10.0 mi SW 5.8 mph - 0.00 in   Clear
10:53 PM 73.0 °F - 71.1 °F 93% 29.96 in 7.0 mi NNE 6.9 mph - N/A   Clear
11:53 PM 72.0 °F - 70.0 °F 93% 29.97 in 8.0 mi North 3.5 mph - N/A   Scattered Clouds